Year,Month,Day,Hour,Minute,Value (Times are PST for temperature in C)
2017,09,02,13,29,24.00
2017,09,02,13,30,24.00
2017,09,02,13,31,24.00
2017,09,02,13,32,23.90
2017,09,02,13,33,23.80
2017,09,02,13,34,23.70
2017,09,02,13,35,23.60
2017,09,02,13,36,23.50
2017,09,02,13,37,23.40
2017,09,02,13,38,23.30
2017,09,02,13,39,23.30
2017,09,02,13,40,23.20
2017,09,02,13,41,23.20
2017,09,02,13,42,23.00
2017,09,02,13,43,22.90
2017,09,02,13,44,22.80
2017,09,02,13,45,22.80
2017,09,02,13,46,22.70
2017,09,02,13,47,22.60
2017,09,02,13,48,22.60
2017,09,02,13,49,22.60
2017,09,02,13,50,22.60
2017,09,02,13,51,22.50
2017,09,02,13,52,22.50
2017,09,02,13,53,22.50
2017,09,02,13,54,22.60
2017,09,02,13,55,22.60
2017,09,02,13,56,22.60
2017,09,02,13,57,22.50
2017,09,02,13,58,22.50
2017,09,02,13,59,22.40
2017,09,02,14,00,22.40
2017,09,02,14,01,22.40
2017,09,02,14,02,22.40
2017,09,02,14,03,22.40
2017,09,02,14,04,22.30
2017,09,02,14,05,22.30
2017,09,02,14,06,22.20
2017,09,02,14,07,22.20
2017,09,02,14,08,22.20
2017,09,02,14,09,22.10
2017,09,02,14,10,22.10
2017,09,02,14,11,22.10
2017,09,02,14,12,22.20
2017,09,02,14,13,22.20
2017,09,02,14,14,22.20
2017,09,02,14,15,22.20
2017,09,02,14,16,22.20
2017,09,02,14,17,22.30
2017,09,02,14,18,22.30
2017,09,02,14,19,22.40
2017,09,02,14,20,22.40
2017,09,02,14,21,22.50
2017,09,02,14,22,22.50
2017,09,02,14,23,22.50
2017,09,02,14,24,22.60
2017,09,02,14,25,22.60
2017,09,02,14,26,22.60
2017,09,02,14,27,22.50
2017,09,02,14,28,22.50
2017,09,02,14,29,22.50
2017,09,02,14,30,22.50
2017,09,02,14,31,22.50
2017,09,02,14,32,22.60
2017,09,02,14,33,22.60
2017,09,02,14,34,22.60
2017,09,02,14,35,22.60
2017,09,02,14,36,22.70
2017,09,02,14,37,22.70
2017,09,02,14,38,22.70
2017,09,02,14,39,22.70
2017,09,02,14,40,22.70
2017,09,02,14,41,22.70
2017,09,02,14,42,22.70
2017,09,02,14,43,22.70
2017,09,02,14,44,22.70
2017,09,02,14,45,22.70
2017,09,02,14,46,22.60
2017,09,02,14,47,22.60
2017,09,02,14,48,22.60
2017,09,02,14,49,22.60
2017,09,02,14,50,22.60
2017,09,02,14,51,22.60
2017,09,02,14,52,22.60
2017,09,02,14,53,22.60
2017,09,02,14,54,22.60
2017,09,02,14,55,22.60
2017,09,02,14,56,22.60
2017,09,02,14,57,22.60
2017,09,02,14,58,22.70
2017,09,02,14,59,22.70
2017,09,02,15,00,22.70
2017,09,02,15,01,22.70
2017,09,02,15,02,22.70
2017,09,02,15,03,22.70
2017,09,02,15,04,22.80
2017,09,02,15,05,22.70
2017,09,02,15,06,22.70
2017,09,02,15,07,22.60
2017,09,02,15,08,22.60
2017,09,02,15,09,22.60
2017,09,02,15,10,22.60
2017,09,02,15,11,22.60
2017,09,02,15,12,22.70
2017,09,02,15,13,22.60
2017,09,02,15,14,22.60
2017,09,02,15,15,22.60
2017,09,02,15,16,22.60
2017,09,02,15,17,22.60
2017,09,02,15,18,22.60
2017,09,02,15,19,22.60
2017,09,02,15,20,22.60
2017,09,02,15,21,22.60
2017,09,02,15,22,22.50
2017,09,02,15,23,22.50
2017,09,02,15,24,22.40
2017,09,02,15,25,22.40
2017,09,02,15,26,22.30
2017,09,02,15,27,22.30
2017,09,02,15,28,22.20
2017,09,02,15,29,22.10
2017,09,02,15,30,22.10
2017,09,02,15,31,22.00
2017,09,02,15,32,21.90
2017,09,02,15,33,21.90
2017,09,02,15,34,21.90
2017,09,02,15,35,21.90
2017,09,02,15,36,22.00
2017,09,02,15,37,22.10
2017,09,02,15,38,22.10
2017,09,02,15,39,22.00
2017,09,02,15,40,22.00
2017,09,02,15,41,21.90
2017,09,02,15,42,21.90
2017,09,02,15,43,21.80
2017,09,02,15,44,21.70
2017,09,02,15,45,21.60
2017,09,02,15,46,21.60
2017,09,02,15,47,21.50
2017,09,02,15,48,21.60
2017,09,02,15,49,21.60
2017,09,02,15,50,21.60
2017,09,02,15,51,21.60
2017,09,02,15,52,21.60
2017,09,02,15,53,21.60
2017,09,02,15,54,21.60
2017,09,02,15,55,21.60
2017,09,02,15,56,21.60
2017,09,02,15,57,21.60
2017,09,02,15,58,21.60
2017,09,02,15,59,21.70
2017,09,02,16,00,21.80
2017,09,02,16,01,21.90
2017,09,02,16,02,21.90
2017,09,02,16,03,21.80
2017,09,02,16,04,21.80
2017,09,02,16,05,21.70
2017,09,02,16,06,21.70
2017,09,02,16,07,21.70
2017,09,02,16,08,21.70
2017,09,02,16,09,21.70
2017,09,02,16,10,21.70
2017,09,02,16,11,21.70
2017,09,02,16,12,21.70
2017,09,02,16,13,21.70
2017,09,02,16,14,21.70
2017,09,02,16,15,21.70
2017,09,02,16,16,21.80
2017,09,02,16,17,21.80
2017,09,02,16,18,21.80
2017,09,02,16,19,21.80
2017,09,02,16,20,21.80
2017,09,02,16,21,21.80
2017,09,02,16,22,21.80
2017,09,02,16,23,21.80
2017,09,02,16,24,21.90
2017,09,02,16,25,21.90
2017,09,02,16,26,21.90
2017,09,02,16,27,22.00
2017,09,02,16,28,22.00
2017,09,02,16,29,21.90
2017,09,02,16,30,21.90
2017,09,02,16,31,21.90
2017,09,02,16,32,22.00
2017,09,02,16,33,22.00
2017,09,02,16,34,22.10
2017,09,02,16,35,22.10
2017,09,02,16,36,22.10
2017,09,02,16,37,22.10
2017,09,02,16,38,22.10
2017,09,02,16,39,22.10
2017,09,02,16,40,22.10
2017,09,02,16,41,22.00
2017,09,02,16,42,22.00
2017,09,02,16,43,22.00
2017,09,02,16,44,22.00
2017,09,02,16,45,22.00
2017,09,02,16,46,22.10
2017,09,02,16,47,22.10
2017,09,02,16,48,22.10
2017,09,02,16,49,22.10
2017,09,02,16,50,22.20
2017,09,02,16,51,22.20
2017,09,02,16,52,22.10
2017,09,02,16,53,22.10
2017,09,02,16,54,22.00
2017,09,02,16,55,22.00
2017,09,02,16,56,21.90
2017,09,02,16,57,21.80
2017,09,02,16,58,21.80
2017,09,02,16,59,21.90
2017,09,02,17,00,21.90
2017,09,02,17,01,21.90
2017,09,02,17,02,21.80
2017,09,02,17,03,21.80
2017,09,02,17,04,21.80
2017,09,02,17,05,21.70
2017,09,02,17,06,21.70
2017,09,02,17,07,21.70
2017,09,02,17,08,21.70
2017,09,02,17,09,21.60
2017,09,02,17,10,21.60
2017,09,02,17,11,21.60
2017,09,02,17,12,21.50
2017,09,02,17,13,21.40
2017,09,02,17,14,21.40
2017,09,02,17,15,21.30
2017,09,02,17,16,21.30
2017,09,02,17,17,21.30
2017,09,02,17,18,21.20
2017,09,02,17,19,21.20
2017,09,02,17,20,21.10
2017,09,02,17,21,21.10
2017,09,02,17,22,21.00
2017,09,02,17,23,21.00
2017,09,02,17,24,20.90
2017,09,02,17,25,20.90
2017,09,02,17,26,20.80
2017,09,02,17,27,20.80
2017,09,02,17,28,20.80
2017,09,02,17,29,20.80
2017,09,02,17,30,20.80
2017,09,02,17,31,20.80
2017,09,02,17,32,20.80
2017,09,02,17,33,20.80
2017,09,02,17,34,20.80
2017,09,02,17,35,20.80
2017,09,02,17,36,20.80
2017,09,02,17,37,20.80
2017,09,02,17,38,20.90
2017,09,02,17,39,20.90
2017,09,02,17,40,21.00
2017,09,02,17,41,21.00
2017,09,02,17,42,21.00
2017,09,02,17,43,21.00
2017,09,02,17,44,21.00
2017,09,02,17,45,21.00
2017,09,02,17,46,21.00
2017,09,02,17,47,21.00
2017,09,02,17,48,21.00
2017,09,02,17,49,21.00
2017,09,02,17,50,21.10
2017,09,02,17,51,21.10
2017,09,02,17,52,21.10
2017,09,02,17,53,21.10
2017,09,02,17,54,21.10
2017,09,02,17,55,21.20
2017,09,02,17,56,21.20
2017,09,02,17,57,21.10
2017,09,02,17,58,21.10
2017,09,02,17,59,21.10
2017,09,02,18,00,21.10
2017,09,02,18,01,21.10
2017,09,02,18,02,21.20
2017,09,02,18,03,21.20
2017,09,02,18,04,21.30
2017,09,02,18,05,21.30
2017,09,02,18,06,21.40
2017,09,02,18,07,21.40
2017,09,02,18,08,21.40
2017,09,02,18,09,21.50
2017,09,02,18,10,21.50
2017,09,02,18,11,21.60
2017,09,02,18,12,21.60
2017,09,02,18,13,21.60
2017,09,02,18,14,21.50
2017,09,02,18,15,21.50
2017,09,02,18,16,21.50
2017,09,02,18,17,21.40
2017,09,02,18,18,21.50
2017,09,02,18,19,21.50
2017,09,02,18,20,21.60
2017,09,02,18,21,21.60
2017,09,02,18,22,21.60
2017,09,02,18,23,21.70
2017,09,02,18,24,21.70
2017,09,02,18,25,21.70
2017,09,02,18,26,21.70
2017,09,02,18,27,21.70
2017,09,02,18,28,21.70
2017,09,02,18,29,21.70
2017,09,02,18,30,21.70
2017,09,02,18,31,21.70
2017,09,02,18,32,21.60
2017,09,02,18,33,21.60
2017,09,02,18,34,21.60
2017,09,02,18,35,21.60
2017,09,02,18,36,21.60
2017,09,02,18,37,21.70
2017,09,02,18,38,21.70
2017,09,02,18,39,21.70
2017,09,02,18,40,21.80
2017,09,02,18,41,21.80
2017,09,02,18,42,21.80
2017,09,02,18,43,21.80
2017,09,02,18,44,21.90
2017,09,02,18,45,21.90
2017,09,02,18,46,21.90
2017,09,02,18,47,21.90
2017,09,02,18,48,21.90
2017,09,02,18,49,22.00
2017,09,02,18,50,22.00
2017,09,02,18,51,21.90
2017,09,02,18,52,21.90
2017,09,02,18,53,21.90
2017,09,02,18,54,21.90
2017,09,02,18,55,21.90
2017,09,02,18,56,21.90
2017,09,02,18,57,21.80
2017,09,02,18,58,21.80
2017,09,02,18,59,21.80
2017,09,02,19,00,21.70
2017,09,02,19,01,21.70
2017,09,02,19,02,21.70
2017,09,02,19,03,21.70
2017,09,02,19,04,21.60
2017,09,02,19,05,21.60
2017,09,02,19,06,21.60
2017,09,02,19,07,21.60
2017,09,02,19,08,21.60
2017,09,02,19,09,21.60
2017,09,02,19,10,21.60
2017,09,02,19,11,21.50
2017,09,02,19,12,21.50
2017,09,02,19,13,21.50
2017,09,02,19,14,21.40
2017,09,02,19,15,21.40
2017,09,02,19,16,21.40
2017,09,02,19,17,21.30
2017,09,02,19,18,21.30
2017,09,02,19,19,21.20
2017,09,02,19,20,21.20
2017,09,02,19,21,21.10
2017,09,02,19,22,21.10
2017,09,02,19,23,21.10
2017,09,02,19,24,21.10
2017,09,02,19,25,21.00
2017,09,02,19,26,20.90
2017,09,02,19,27,20.90
2017,09,02,19,28,20.90
2017,09,02,19,29,20.90
2017,09,02,19,30,20.90
2017,09,02,19,31,20.90
2017,09,02,19,32,20.90
2017,09,02,19,33,20.90
2017,09,02,19,34,20.90
2017,09,02,19,35,20.80
2017,09,02,19,36,20.80
2017,09,02,19,37,20.80
2017,09,02,19,38,20.80
2017,09,02,19,39,20.80
2017,09,02,19,40,20.80
2017,09,02,19,41,20.80
2017,09,02,19,42,20.80
2017,09,02,19,43,20.70
2017,09,02,19,44,20.70
2017,09,02,19,45,20.70
2017,09,02,19,46,20.60
2017,09,02,19,47,20.60
2017,09,02,19,48,20.60
2017,09,02,19,49,20.50
2017,09,02,19,50,20.50
2017,09,02,19,51,20.40
2017,09,02,19,52,20.40
2017,09,02,19,53,20.30
2017,09,02,19,54,20.30
2017,09,02,19,55,20.30
2017,09,02,19,56,20.20
2017,09,02,19,57,20.20
2017,09,02,19,58,20.20
2017,09,02,19,59,20.20
2017,09,02,20,00,20.20
2017,09,02,20,01,20.20
2017,09,02,20,02,20.20
2017,09,02,20,03,20.20
2017,09,02,20,04,20.20
2017,09,02,20,05,20.20
2017,09,02,20,06,20.20
2017,09,02,20,07,20.20
